Regional Weather Roundup
Issued by NWS

Home | Current Version | Previous Version | Graphics & Text | Print | Product List | Glossary Off
Versions: 1 2 3 4 5 6 7 8 9 10 11 12 13 14 15 16 17 18 19 20 21 22 23 24 25 26 27 28 29 30 31 32 33 34 35 36 37 38 39 40 41 42 43 44 45

591
ASUS44 KJAN 060403
RWRMS

MISSISSIPPI HOURLY WEATHER ROUNDUP
NATIONAL WEATHER SERVICE JACKSON MS
1000 PM CST THU MAR 05 2015

NOTE: "FAIR: INDICATES FEW OR NO CLOUDS BELOW 12,000 FEET WITH NO
SIGNIFICANT WEATHER AND/OR OBSTRUCTIONS TO VISIBILITY.

MSZ001>002-007>008-010>013-018>021-025>028-034>036-060500-
NORTHWEST MISSISSIPPI

CITY           SKY/WX    TMP DP  RH WIND       PRES   REMARKS
CLARKSDALE     FAIR      25  19  80 CALM      30.61R
CLEVELAND      FAIR      27  19  71 N8        30.59R WCI  19
GREENWOOD      CLEAR     27  13  55 N10       30.57S WCI  17
GREENVILLE     CLEAR     28  19  69 MISG      30.59R
OLIVE BRANCH   CLEAR     21  14  73 CALM      30.59R
OXFORD         FAIR      21  10  63 N3        30.58R
TUNICA         CLEAR     25  19  80 N3        30.62R
$$

MSZ003>006-009-014>017-022>024-029>033-037>039-060500-
NORTHEAST MISSISSIPPI

CITY           SKY/WX    TMP DP  RH WIND       PRES   REMARKS
COLUMBUS AFB   PTCLDY    26  17  69 NW7       30.53R WCI  18
CORINTH        FAIR      25  12  58 N10       30.55S WCI  15
GOLDN TRIANGLE PTCLDY    27  18  69 N9        30.51S WCI  17
STARKVILLE     FAIR      27  19  74 CALM      30.53S
TUPELO         CLEAR     24  13  62 N9        30.55R WCI  14
$$

MSZ040-058-060500-
CENTRAL MISSISSIPPI

CITY           SKY/WX    TMP DP  RH WIND       PRES   REMARKS
JACKSON INTL   PTCLDY    27  18  69 N12       30.53R WCI  17
JACKSON HAWKNS CLEAR     26  18  71 N6        30.54R WCI  19
MERIDIAN KEY   PTCLDY    28  19  69 N13       30.50R WCI  17
MERIDIAN NAS   CLEAR     27  21  78 N6        30.50R WCI  20
VICKSBURG      PTCLDY    30  17  58 N14       30.58R WCI  19
$$

MSZ059>079-060500-
SOUTH MISSISSIPPI

CITY           SKY/WX    TMP DP  RH WIND       PRES   REMARKS
BROOKHAVEN     FAIR      28  23  80 CALM      30.52S
HATTIESBURG    PTCLDY    32  21  64 N14G20    30.49R WCI  22
MCCOMB         PTCLDY    28  18  66 N14       30.50R WCI  17
NATCHEZ        PTCLDY    28  12  50 N13       30.55R WCI  18
PINE BELT      PTCLDY    30  19  64 N10       30.48S WCI  21
$$

MSZ080>082-060500-
COASTAL MISSISSIPPI

CITY           SKY/WX    TMP DP  RH WIND       PRES   REMARKS
BILOXI         PTCLDY    36  26  68 N16G24    30.42R WCI  26
PASCAGOULA     MOCLDY    35  26  69 N16G26    30.41R WCI  25
GULFPORT       PTCLDY    35  23  61 N21G31    30.42R WCI  24
$$



USA.gov is the U.S. government's official web portal to all federal, state and local government web resources and services.